Time,TemperatureF,DewpointF,PressureIn,WindDirection,WindDirectionDegrees,WindSpeedMPH,WindSpeedGustMPH,Humidity,HourlyPrecipIn,Conditions,Clouds,dailyrainin,SoftwareType,DateUTC
2013-10-28 00:00:00,65.1,62.1,29.99,SE,124,0.0,13.0,90,0.00,,,0.00,Wunderground v.1.15,2013-10-28 05:00:00,
2013-10-28 00:05:00,65.1,62.1,29.98,SE,124,0.0,13.0,90,0.00,,,0.00,Wunderground v.1.15,2013-10-28 05:05:00,
2013-10-28 00:15:00,65.2,62.2,29.98,SE,124,0.0,13.0,90,0.00,,,0.00,Wunderground v.1.15,2013-10-28 05:15:00,
2013-10-28 00:20:00,65.2,62.5,29.98,SE,124,0.0,13.0,91,0.00,,,0.00,Wunderground v.1.15,2013-10-28 05:20:00,
2013-10-28 00:25:00,65.2,62.5,29.98,ESE,123,0.0,13.0,91,0.00,,,0.00,Wunderground v.1.15,2013-10-28 05:25:00,
2013-10-28 00:35:00,65.3,62.6,29.98,SE,128,0.0,13.0,91,0.00,,,0.00,Wunderground v.1.15,2013-10-28 05:35:00,
2013-10-28 00:45:00,65.5,62.8,29.98,SE,128,0.0,13.0,91,0.00,,,0.00,Wunderground v.1.15,2013-10-28 05:45:00,
2013-10-28 00:50:00,65.5,62.8,29.98,SE,145,0.0,13.0,91,0.00,,,0.00,Wunderground v.1.15,2013-10-28 05:50:00,
2013-10-28 00:55:00,65.6,63.2,29.98,SSE,161,1.0,13.0,92,0.00,,,0.00,Wunderground v.1.15,2013-10-28 05:55:00,
2013-10-28 01:05:00,65.7,63.3,29.98,SSE,155,1.0,13.0,92,0.00,,,0.00,Wunderground v.1.15,2013-10-28 06:05:00,
2013-10-28 01:10:00,65.6,63.2,29.98,SSE,155,2.0,2.0,92,0.00,,,0.00,Wunderground v.1.15,2013-10-28 06:10:00,
2013-10-28 01:16:00,65.6,63.2,29.98,SSE,163,1.0,5.0,92,0.00,,,0.00,Wunderground v.1.15,2013-10-28 06:16:00,
2013-10-28 01:25:00,65.4,63.3,29.97,ESE,118,2.0,3.0,93,0.00,,,0.00,Wunderground v.1.15,2013-10-28 06:25:00,
2013-10-28 01:35:00,65.3,63.2,29.97,SSE,161,2.0,13.0,93,0.00,,,0.00,Wunderground v.1.15,2013-10-28 06:35:00,
2013-10-28 01:40:00,65.2,63.1,29.96,East,91,2.0,13.0,93,0.00,,,0.00,Wunderground v.1.15,2013-10-28 06:40:00,
2013-10-28 01:45:00,65.2,63.1,29.96,SSE,161,2.0,13.0,93,0.00,,,0.00,Wunderground v.1.15,2013-10-28 06:45:00,
2013-10-28 01:55:00,65.2,63.4,29.96,South,173,1.0,13.0,94,0.00,,,0.00,Wunderground v.1.15,2013-10-28 06:55:00,
2013-10-28 02:00:00,65.2,63.4,29.96,SE,146,1.0,13.0,94,0.00,,,0.00,Wunderground v.1.15,2013-10-28 07:00:00,
2013-10-28 02:05:00,65.2,63.4,29.97,South,169,1.0,13.0,94,0.00,,,0.00,Wunderground v.1.15,2013-10-28 07:05:00,
2013-10-28 02:15:00,65.1,63.3,29.97,SSE,155,2.0,13.0,94,0.00,,,0.00,Wunderground v.1.15,2013-10-28 07:15:00,
2013-10-28 02:20:00,65.0,63.2,29.97,SSE,159,2.0,13.0,94,0.00,,,0.00,Wunderground v.1.15,2013-10-28 07:20:00,
2013-10-28 02:30:00,64.9,63.4,29.97,South,171,2.0,2.0,95,0.00,,,0.00,Wunderground v.1.15,2013-10-28 07:30:00,
2013-10-28 02:35:00,64.8,63.3,29.97,SSE,161,2.0,13.0,95,0.00,,,0.00,Wunderground v.1.15,2013-10-28 07:35:00,
2013-10-28 02:40:00,64.7,63.2,29.96,ESE,110,2.0,2.0,95,0.00,,,0.00,Wunderground v.1.15,2013-10-28 07:40:00,
2013-10-28 02:50:00,64.5,63.3,29.96,ESE,117,2.0,13.0,96,0.00,,,0.00,Wunderground v.1.15,2013-10-28 07:50:00,
2013-10-28 02:55:00,64.5,63.3,29.97,SSE,162,2.0,13.0,96,0.00,,,0.00,Wunderground v.1.15,2013-10-28 07:55:00,
2013-10-28 03:05:00,64.4,63.2,29.96,South,183,2.0,13.0,96,0.00,,,0.00,Wunderground v.1.15,2013-10-28 08:05:00,
2013-10-28 03:11:00,64.3,63.1,29.96,SSE,149,2.0,2.0,96,0.00,,,0.00,Wunderground v.1.15,2013-10-28 08:11:00,
2013-10-28 03:20:00,64.3,63.1,29.96,South,171,3.0,3.0,96,0.00,,,0.00,Wunderground v.1.15,2013-10-28 08:20:00,
2013-10-28 03:30:00,64.3,63.4,29.96,SSE,161,1.0,13.0,97,0.00,,,0.00,Wunderground v.1.15,2013-10-28 08:30:00,
2013-10-28 03:35:00,64.4,63.5,29.95,SSE,151,2.0,13.0,97,0.00,,,0.00,Wunderground v.1.15,2013-10-28 08:35:00,
2013-10-28 03:45:00,64.4,63.5,29.95,SSE,147,2.0,13.0,97,0.00,,,0.00,Wunderground v.1.15,2013-10-28 08:45:00,
2013-10-28 03:50:00,64.4,63.5,29.95,SSE,153,3.0,3.0,97,0.00,,,0.00,Wunderground v.1.15,2013-10-28 08:50:00,
2013-10-28 04:00:00,64.4,63.5,29.95,SSE,155,2.0,2.0,97,0.00,,,0.00,Wunderground v.1.15,2013-10-28 09:00:00,
2013-10-28 04:05:00,64.5,63.6,29.95,SSE,167,1.0,13.0,97,0.00,,,0.00,Wunderground v.1.15,2013-10-28 09:05:00,
2013-10-28 04:10:00,64.5,63.6,29.95,South,184,2.0,2.0,97,0.00,,,0.00,Wunderground v.1.15,2013-10-28 09:10:00,
2013-10-28 04:20:00,64.6,64.0,29.96,SSE,159,2.0,13.0,98,0.00,,,0.00,Wunderground v.1.15,2013-10-28 09:20:00,
2013-10-28 04:25:00,64.7,64.1,29.96,SSE,168,2.0,13.0,98,0.00,,,0.00,Wunderground v.1.15,2013-10-28 09:25:00,
2013-10-28 04:35:00,64.7,64.1,29.96,SE,146,3.0,13.0,98,0.00,,,0.00,Wunderground v.1.15,2013-10-28 09:35:00,
2013-10-28 04:40:00,64.7,64.1,29.96,SSE,150,1.0,13.0,98,0.00,,,0.00,Wunderground v.1.15,2013-10-28 09:40:00,
2013-10-28 04:50:00,64.7,64.1,29.96,SSE,153,2.0,2.0,98,0.00,,,0.00,Wunderground v.1.15,2013-10-28 09:50:00,
2013-10-28 04:55:00,64.7,64.1,29.95,SSE,151,2.0,13.0,98,0.00,,,0.00,Wunderground v.1.15,2013-10-28 09:55:00,
2013-10-28 05:05:00,64.8,64.2,29.95,South,170,2.0,13.0,98,0.00,,,0.00,Wunderground v.1.15,2013-10-28 10:05:00,
2013-10-28 05:10:00,64.8,64.2,29.95,SSE,147,2.0,2.0,98,0.00,,,0.00,Wunderground v.1.15,2013-10-28 10:10:00,
2013-10-28 05:15:00,64.8,64.2,29.95,SSE,164,2.0,13.0,98,0.00,,,0.00,Wunderground v.1.15,2013-10-28 10:15:00,
2013-10-28 05:25:00,64.8,64.2,29.96,SSE,151,2.0,13.0,98,0.00,,,0.00,Wunderground v.1.15,2013-10-28 10:25:00,
2013-10-28 05:35:00,64.9,64.3,29.96,ESE,121,1.0,13.0,98,0.00,,,0.00,Wunderground v.1.15,2013-10-28 10:35:00,
2013-10-28 05:40:00,64.9,64.3,29.96,SE,138,1.0,1.0,98,0.00,,,0.00,Wunderground v.1.15,2013-10-28 10:40:00,
2013-10-28 05:50:00,65.0,64.4,29.96,SSE,165,1.0,13.0,98,0.00,,,0.00,Wunderground v.1.15,2013-10-28 10:50:00,
2013-10-28 05:55:00,65.0,64.4,29.96,SSE,149,1.0,13.0,98,0.00,,,0.00,Wunderground v.1.15,2013-10-28 10:55:00,
2013-10-28 06:00:00,65.1,64.5,29.96,SSE,165,1.0,1.0,98,0.00,,,0.00,Wunderground v.1.15,2013-10-28 11:00:00,
2013-10-28 06:10:00,65.2,64.6,29.96,SSE,161,2.0,13.0,98,0.00,,,0.00,Wunderground v.1.15,2013-10-28 11:10:00,
2013-10-28 06:20:00,65.3,64.7,29.96,SSE,161,1.0,13.0,98,0.00,,,0.00,Wunderground v.1.15,2013-10-28 11:20:00,
2013-10-28 06:25:00,65.3,64.7,29.96,SSE,156,1.0,13.0,98,0.00,,,0.00,Wunderground v.1.15,2013-10-28 11:25:00,
2013-10-28 06:35:00,65.4,64.8,29.96,SE,128,2.0,3.0,98,0.00,,,0.00,Wunderground v.1.15,2013-10-28 11:35:00,
2013-10-28 06:41:00,65.5,64.9,29.96,SSE,163,2.0,2.0,98,0.00,,,0.00,Wunderground v.1.15,2013-10-28 11:41:00,
2013-10-28 06:50:00,65.6,65.0,29.96,SSW,204,2.0,2.0,98,0.00,,,0.00,Wunderground v.1.15,2013-10-28 11:50:00,
2013-10-28 06:55:00,65.7,65.1,29.96,SSE,148,2.0,4.0,98,0.00,,,0.00,Wunderground v.1.15,2013-10-28 11:55:00,
2013-10-28 07:00:00,65.8,65.2,29.96,SE,141,2.0,2.0,98,0.00,,,0.00,Wunderground v.1.15,2013-10-28 12:00:00,
2013-10-28 07:05:00,65.8,65.2,29.96,SSE,156,2.0,6.0,98,0.00,,,0.00,Wunderground v.1.15,2013-10-28 12:05:00,
2013-10-28 07:10:00,65.9,65.3,29.96,South,172,2.0,2.0,98,0.00,,,0.00,Wunderground v.1.15,2013-10-28 12:10:00,
2013-10-28 07:20:00,66.1,65.2,29.96,SE,134,1.0,1.0,97,0.00,,,0.00,Wunderground v.1.15,2013-10-28 12:20:00,
2013-10-28 07:30:00,66.3,65.4,29.96,SSE,148,2.0,2.0,97,0.00,,,0.00,Wunderground v.1.15,2013-10-28 12:30:00,
2013-10-28 07:35:00,66.3,65.4,29.97,SSE,165,2.0,13.0,97,0.00,,,0.00,Wunderground v.1.15,2013-10-28 12:35:00,
2013-10-28 07:45:00,66.4,65.2,29.97,SE,142,3.0,3.0,96,0.00,,,0.00,Wunderground v.1.15,2013-10-28 12:45:00,
2013-10-28 07:50:00,66.5,65.3,29.98,SSE,148,2.0,13.0,96,0.00,,,0.00,Wunderground v.1.15,2013-10-28 12:50:00,
2013-10-28 08:00:00,66.4,64.9,29.98,South,175,2.0,13.0,95,0.00,,,0.00,Wunderground v.1.15,2013-10-28 13:00:00,
2013-10-28 08:05:00,66.4,64.9,29.98,SSE,165,2.0,13.0,95,0.00,,,0.00,Wunderground v.1.15,2013-10-28 13:05:00,
2013-10-28 08:10:00,66.5,64.7,29.98,South,175,3.0,13.0,94,0.00,,,0.00,Wunderground v.1.15,2013-10-28 13:10:00,
2013-10-28 08:20:00,66.7,64.9,29.99,SSE,148,3.0,3.0,94,0.00,,,0.00,Wunderground v.1.15,2013-10-28 13:20:00,
2013-10-28 08:25:00,66.8,64.7,29.99,ESE,121,3.0,13.0,93,0.00,,,0.00,Wunderground v.1.15,2013-10-28 13:25:00,
2013-10-28 08:35:00,67.0,64.9,29.99,SSE,162,2.0,13.0,93,0.00,,,0.00,Wunderground v.1.15,2013-10-28 13:35:00,
2013-10-28 08:40:00,67.1,65.0,29.99,SSE,163,2.0,2.0,93,0.00,,,0.00,Wunderground v.1.15,2013-10-28 13:40:00,
2013-10-28 08:50:00,67.3,65.2,30.00,SSE,150,3.0,3.0,93,0.00,,,0.00,Wunderground v.1.15,2013-10-28 13:50:00,
2013-10-28 08:55:00,67.4,65.3,30.00,SW,227,2.0,13.0,93,0.00,,,0.00,Wunderground v.1.15,2013-10-28 13:55:00,
2013-10-28 09:05:00,67.5,65.1,30.00,SSE,164,2.0,13.0,92,0.00,,,0.00,Wunderground v.1.15,2013-10-28 14:05:00,
2013-10-28 09:15:00,67.6,65.2,30.01,ESE,123,3.0,13.0,92,0.00,,,0.00,Wunderground v.1.15,2013-10-28 14:15:00,
2013-10-28 09:20:00,67.7,65.3,30.01,South,170,3.0,3.0,92,0.00,,,0.00,Wunderground v.1.15,2013-10-28 14:20:00,
2013-10-28 09:31:00,67.9,65.5,30.02,South,180,2.0,13.0,92,0.00,,,0.00,Wunderground v.1.15,2013-10-28 14:31:00,
2013-10-28 09:40:00,68.2,65.2,30.02,SE,144,4.0,13.0,90,0.00,,,0.00,Wunderground v.1.15,2013-10-28 14:40:00,
2013-10-28 09:50:00,68.5,65.4,30.02,SSE,148,3.0,13.0,90,0.00,,,0.00,Wunderground v.1.15,2013-10-28 14:50:00,
2013-10-28 09:55:00,68.6,65.5,30.02,SSE,163,3.0,13.0,90,0.00,,,0.00,Wunderground v.1.15,2013-10-28 14:55:00,
2013-10-28 10:05:00,68.8,65.4,30.03,ESE,121,3.0,4.0,89,0.00,,,0.00,Wunderground v.1.15,2013-10-28 15:05:00,
2013-10-28 10:10:00,68.8,65.4,30.03,South,169,4.0,13.0,89,0.00,,,0.00,Wunderground v.1.15,2013-10-28 15:10:00,
2013-10-28 10:20:00,68.9,65.2,30.03,SSE,162,3.0,3.0,88,0.00,,,0.00,Wunderground v.1.15,2013-10-28 15:20:00,
2013-10-28 10:26:00,69.0,65.3,30.03,SE,124,2.0,13.0,88,0.00,,,0.00,Wunderground v.1.15,2013-10-28 15:26:00,
2013-10-28 10:35:00,69.6,65.6,30.02,SE,126,4.0,13.0,87,0.00,,,0.00,Wunderground v.1.15,2013-10-28 15:35:00,
2013-10-28 10:45:00,70.2,65.1,30.02,SSW,200,3.0,13.0,84,0.00,,,0.00,Wunderground v.1.15,2013-10-28 15:45:00,
2013-10-28 10:50:00,70.1,64.7,30.02,South,174,4.0,13.0,83,0.00,,,0.00,Wunderground v.1.15,2013-10-28 15:50:00,
2013-10-28 10:56:00,70.1,65.0,30.02,SSE,155,4.0,13.0,84,0.00,,,0.00,Wunderground v.1.15,2013-10-28 15:56:00,
2013-10-28 11:05:00,70.4,65.3,30.02,ESE,110,3.0,13.0,84,0.00,,,0.00,Wunderground v.1.15,2013-10-28 16:05:00,
2013-10-28 11:15:00,70.6,65.5,30.02,SSE,157,4.0,13.0,84,0.00,,,0.00,Wunderground v.1.15,2013-10-28 16:15:00,
2013-10-28 11:20:00,70.8,65.7,30.02,SSE,153,4.0,4.0,84,0.00,,,0.00,Wunderground v.1.15,2013-10-28 16:20:00,
2013-10-28 11:31:00,71.4,66.0,30.01,SE,139,4.0,4.0,83,0.00,,,0.00,Wunderground v.1.15,2013-10-28 16:31:00,
2013-10-28 11:40:00,71.6,65.8,30.01,SSE,166,4.0,13.0,82,0.00,,,0.00,Wunderground v.1.15,2013-10-28 16:40:00,
2013-10-28 11:50:00,72.0,66.6,30.01,South,169,5.0,5.0,83,0.00,,,0.00,Wunderground v.1.15,2013-10-28 16:50:00,
2013-10-28 11:55:00,72.3,65.8,30.01,SSE,150,5.0,13.0,80,0.00,,,0.00,Wunderground v.1.15,2013-10-28 16:55:00,
2013-10-28 12:05:00,72.8,66.3,30.01,SSE,167,6.0,13.0,80,0.00,,,0.00,Wunderground v.1.15,2013-10-28 17:05:00,
2013-10-28 12:10:00,73.8,66.1,30.01,SSE,148,7.0,7.0,77,0.00,,,0.00,Wunderground v.1.15,2013-10-28 17:10:00,
2013-10-28 12:20:00,75.7,65.2,30.01,SSE,154,6.0,6.0,70,0.00,,,0.00,Wunderground v.1.15,2013-10-28 17:20:00,
2013-10-28 12:25:00,75.7,65.2,30.01,South,175,7.0,7.0,70,0.00,,,0.00,Wunderground v.1.15,2013-10-28 17:25:00,
2013-10-28 12:35:00,74.9,65.3,30.00,SSE,162,5.0,13.0,72,0.00,,,0.00,Wunderground v.1.15,2013-10-28 17:35:00,
2013-10-28 12:40:00,75.3,66.0,30.00,SSE,168,4.0,4.0,73,0.00,,,0.00,Wunderground v.1.15,2013-10-28 17:40:00,
2013-10-28 12:45:00,75.8,65.7,30.00,SSE,150,3.0,13.0,71,0.00,,,0.00,Wunderground v.1.15,2013-10-28 17:45:00,
2013-10-28 12:55:00,75.7,65.6,29.99,SSE,160,4.0,13.0,71,0.00,,,0.00,Wunderground v.1.15,2013-10-28 17:55:00,
2013-10-28 13:05:00,76.4,65.9,29.99,SSE,162,6.0,13.0,70,0.00,,,0.00,Wunderground v.1.15,2013-10-28 18:05:00,
2013-10-28 13:10:00,77.2,65.8,29.98,South,176,6.0,13.0,68,0.00,,,0.00,Wunderground v.1.15,2013-10-28 18:10:00,
2013-10-28 13:15:00,77.6,65.3,29.98,SE,139,7.0,13.0,66,0.00,,,0.00,Wunderground v.1.15,2013-10-28 18:15:00,
2013-10-28 13:25:00,78.3,66.0,29.98,SSE,159,5.0,13.0,66,0.00,,,0.00,Wunderground v.1.15,2013-10-28 18:25:00,
2013-10-28 13:35:00,78.4,65.2,29.97,SSW,193,7.0,13.0,64,0.00,,,0.00,Wunderground v.1.15,2013-10-28 18:35:00,
2013-10-28 13:40:00,78.6,65.8,29.97,SE,143,6.0,13.0,65,0.00,,,0.00,Wunderground v.1.15,2013-10-28 18:40:00,
2013-10-28 13:50:00,78.9,64.8,29.96,South,174,7.0,13.0,62,0.00,,,0.00,Wunderground v.1.15,2013-10-28 18:50:00,
2013-10-28 13:55:00,78.4,64.8,29.96,SSE,159,7.0,13.0,63,0.00,,,0.00,Wunderground v.1.15,2013-10-28 18:55:00,
2013-10-28 14:05:00,78.6,64.9,29.95,SSE,156,6.0,13.0,63,0.00,,,0.00,Wunderground v.1.15,2013-10-28 19:05:00,
2013-10-28 14:10:00,78.9,65.7,29.95,East,81,6.0,6.0,64,0.00,,,0.00,Wunderground v.1.15,2013-10-28 19:10:00,
2013-10-28 14:20:00,78.1,64.9,29.95,South,172,6.0,13.0,64,0.00,,,0.00,Wunderground v.1.15,2013-10-28 19:20:00,
2013-10-28 14:25:00,77.4,65.1,29.95,SSW,209,6.0,13.0,66,0.00,,,0.00,Wunderground v.1.15,2013-10-28 19:25:00,
2013-10-28 14:35:00,78.4,65.2,29.95,SSE,159,6.0,13.0,64,0.00,,,0.00,Wunderground v.1.15,2013-10-28 19:35:00,
2013-10-28 14:40:00,79.0,65.3,29.94,SE,144,6.0,6.0,63,0.00,,,0.00,Wunderground v.1.15,2013-10-28 19:40:00,
2013-10-28 14:50:00,78.7,65.9,29.94,SSE,159,7.0,7.0,65,0.00,,,0.00,Wunderground v.1.15,2013-10-28 19:50:00,
2013-10-28 14:56:00,78.3,64.7,29.94,SSE,159,7.0,13.0,63,0.00,,,0.00,Wunderground v.1.15,2013-10-28 19:56:00,
2013-10-28 15:05:00,77.5,65.7,29.94,SSE,156,6.0,13.0,67,0.00,,,0.00,Wunderground v.1.15,2013-10-28 20:05:00,
2013-10-28 15:15:00,78.2,65.5,29.94,SSE,158,6.0,13.0,65,0.00,,,0.00,Wunderground v.1.15,2013-10-28 20:15:00,
2013-10-28 15:20:00,78.7,65.5,29.93,SSE,161,6.0,13.0,64,0.00,,,0.00,Wunderground v.1.15,2013-10-28 20:20:00,
2013-10-28 15:26:00,79.3,65.6,29.94,SSE,148,5.0,13.0,63,0.00,,,0.00,Wunderground v.1.15,2013-10-28 20:26:00,
2013-10-28 15:35:00,78.6,64.9,29.93,WSW,252,6.0,13.0,63,0.00,,,0.00,Wunderground v.1.15,2013-10-28 20:35:00,
2013-10-28 15:40:00,78.4,64.8,29.93,SSE,160,6.0,6.0,63,0.00,,,0.00,Wunderground v.1.15,2013-10-28 20:40:00,
2013-10-28 15:45:00,78.4,64.8,29.93,SE,144,6.0,13.0,63,0.00,,,0.00,Wunderground v.1.15,2013-10-28 20:45:00,
2013-10-28 15:50:00,78.6,64.9,29.93,SE,139,6.0,6.0,63,0.00,,,0.00,Wunderground v.1.15,2013-10-28 20:50:00,
2013-10-28 16:00:00,78.4,64.8,29.93,SSW,198,5.0,13.0,63,0.00,,,0.00,Wunderground v.1.15,2013-10-28 21:00:00,
2013-10-28 16:10:00,77.9,64.7,29.93,South,185,7.0,7.0,64,0.00,,,0.00,Wunderground v.1.15,2013-10-28 21:10:00,
2013-10-28 16:15:00,77.8,64.6,29.93,South,177,6.0,13.0,64,0.00,,,0.00,Wunderground v.1.15,2013-10-28 21:15:00,
2013-10-28 16:25:00,77.7,65.0,29.93,South,182,5.0,13.0,65,0.00,,,0.00,Wunderground v.1.15,2013-10-28 21:25:00,
2013-10-28 16:30:00,77.8,65.1,29.93,SE,131,5.0,5.0,65,0.00,,,0.00,Wunderground v.1.15,2013-10-28 21:30:00,
2013-10-28 16:36:00,77.8,65.1,29.93,SSE,155,4.0,13.0,65,0.00,,,0.00,Wunderground v.1.15,2013-10-28 21:36:00,
2013-10-28 16:45:00,77.6,64.9,29.92,SSW,204,7.0,13.0,65,0.00,,,0.00,Wunderground v.1.15,2013-10-28 21:45:00,
2013-10-28 16:55:00,77.4,65.1,29.92,SSW,202,6.0,13.0,66,0.00,,,0.00,Wunderground v.1.15,2013-10-28 21:55:00,
2013-10-28 17:00:00,77.6,65.3,29.92,South,187,6.0,13.0,66,0.00,,,0.00,Wunderground v.1.15,2013-10-28 22:00:00,
2013-10-28 17:10:00,77.3,65.1,29.93,SE,139,5.0,13.0,66,0.00,,,0.00,Wunderground v.1.15,2013-10-28 22:10:00,
2013-10-28 17:15:00,77.2,65.4,29.92,South,182,5.0,13.0,67,0.00,,,0.00,Wunderground v.1.15,2013-10-28 22:15:00,
2013-10-28 17:21:00,77.1,64.9,29.92,South,186,5.0,13.0,66,0.00,,,0.00,Wunderground v.1.15,2013-10-28 22:21:00,
2013-10-28 17:30:00,77.1,64.9,29.92,South,169,6.0,13.0,66,0.00,,,0.00,Wunderground v.1.15,2013-10-28 22:30:00,
2013-10-28 17:40:00,77.0,65.2,29.92,South,185,4.0,4.0,67,0.00,,,0.00,Wunderground v.1.15,2013-10-28 22:40:00,
2013-10-28 17:45:00,76.7,64.9,29.92,SSW,192,4.0,5.0,67,0.00,,,0.00,Wunderground v.1.15,2013-10-28 22:45:00,
2013-10-28 17:50:00,76.5,64.7,29.92,SSE,148,4.0,13.0,67,0.00,,,0.00,Wunderground v.1.15,2013-10-28 22:50:00,
2013-10-28 18:00:00,76.4,65.1,29.92,SSE,153,4.0,4.0,68,0.00,,,0.00,Wunderground v.1.15,2013-10-28 23:00:00,
2013-10-28 18:05:00,76.2,64.9,29.92,ESE,120,4.0,13.0,68,0.00,,,0.00,Wunderground v.1.15,2013-10-28 23:05:00,
2013-10-28 18:10:00,76.1,65.2,29.93,SSE,168,3.0,13.0,69,0.00,,,0.00,Wunderground v.1.15,2013-10-28 23:10:00,
2013-10-28 18:15:00,76.0,65.1,29.92,SE,133,4.0,13.0,69,0.00,,,0.00,Wunderground v.1.15,2013-10-28 23:15:00,
2013-10-28 18:21:00,75.8,64.9,29.92,SSE,165,5.0,5.0,69,0.00,,,0.00,Wunderground v.1.15,2013-10-28 23:21:00,
2013-10-28 18:30:00,75.4,64.9,29.93,ESE,108,3.0,3.0,70,0.00,,,0.00,Wunderground v.1.15,2013-10-28 23:30:00,
2013-10-28 18:35:00,75.2,65.1,29.93,SSE,159,3.0,4.0,71,0.00,,,0.00,Wunderground v.1.15,2013-10-28 23:35:00,
2013-10-28 18:40:00,74.9,64.9,29.93,SSE,155,2.0,13.0,71,0.00,,,0.00,Wunderground v.1.15,2013-10-28 23:40:00,
2013-10-28 18:50:00,74.7,65.1,29.93,SSE,167,3.0,13.0,72,0.00,,,0.00,Wunderground v.1.15,2013-10-28 23:50:00,
2013-10-28 18:56:00,74.6,65.0,29.93,SSE,154,3.0,13.0,72,0.00,,,0.00,Wunderground v.1.15,2013-10-28 23:56:00,
2013-10-28 19:05:00,74.2,65.0,29.93,SSE,150,2.0,13.0,73,0.00,,,0.00,Wunderground v.1.15,2013-10-29 00:05:00,
2013-10-28 19:15:00,74.0,65.2,29.93,SSW,206,3.0,13.0,74,0.00,,,0.00,Wunderground v.1.15,2013-10-29 00:15:00,
2013-10-28 19:20:00,73.9,65.1,29.93,East,81,2.0,13.0,74,0.00,,,0.00,Wunderground v.1.15,2013-10-29 00:20:00,
2013-10-28 19:26:00,73.8,65.4,29.93,SE,144,2.0,13.0,75,0.00,,,0.00,Wunderground v.1.15,2013-10-29 00:26:00,
2013-10-28 19:35:00,73.8,65.4,29.93,ESE,119,4.0,13.0,75,0.00,,,0.00,Wunderground v.1.15,2013-10-29 00:35:00,
2013-10-28 19:45:00,73.7,65.7,29.94,SSE,152,3.0,13.0,76,0.00,,,0.00,Wunderground v.1.15,2013-10-29 00:45:00,
2013-10-28 19:50:00,73.6,65.6,29.94,South,182,3.0,13.0,76,0.00,,,0.00,Wunderground v.1.15,2013-10-29 00:50:00,
2013-10-28 19:56:00,73.5,65.5,29.94,SSE,160,4.0,13.0,76,0.00,,,0.00,Wunderground v.1.15,2013-10-29 00:56:00,
2013-10-28 20:05:00,73.4,65.4,29.94,South,180,4.0,13.0,76,0.00,,,0.00,Wunderground v.1.15,2013-10-29 01:05:00,
2013-10-28 20:15:00,73.6,65.6,29.94,SSE,153,5.0,7.0,76,0.00,,,0.00,Wunderground v.1.15,2013-10-29 01:15:00,
2013-10-28 20:20:00,73.5,65.5,29.94,South,189,5.0,13.0,76,0.00,,,0.00,Wunderground v.1.15,2013-10-29 01:20:00,
2013-10-28 20:31:00,73.4,65.4,29.95,SSE,150,5.0,5.0,76,0.00,,,0.00,Wunderground v.1.15,2013-10-29 01:31:00,
2013-10-28 20:40:00,73.2,65.6,29.95,South,191,4.0,13.0,77,0.00,,,0.00,Wunderground v.1.15,2013-10-29 01:40:00,
2013-10-28 20:50:00,73.0,65.4,29.96,SSE,149,4.0,4.0,77,0.00,,,0.00,Wunderground v.1.15,2013-10-29 01:50:00,
2013-10-28 20:55:00,72.9,65.6,29.96,South,172,5.0,7.0,78,0.00,,,0.00,Wunderground v.1.15,2013-10-29 01:55:00,
2013-10-28 21:00:00,72.9,65.6,29.96,SE,146,5.0,5.0,78,0.00,,,0.00,Wunderground v.1.15,2013-10-29 02:00:00,
2013-10-28 21:10:00,72.7,65.4,29.97,East,98,6.0,6.0,78,0.00,,,0.00,Wunderground v.1.15,2013-10-29 02:10:00,
2013-10-28 21:15:00,72.5,65.2,29.97,SSW,200,5.0,13.0,78,0.00,,,0.00,Wunderground v.1.15,2013-10-29 02:15:00,
2013-10-28 21:21:00,72.4,65.2,29.97,SSE,168,4.0,13.0,78,0.00,,,0.00,Wunderground v.1.15,2013-10-29 02:21:00,
2013-10-28 21:30:00,72.1,64.9,29.97,SSW,196,5.0,5.0,78,0.00,,,0.00,Wunderground v.1.15,2013-10-29 02:30:00,
2013-10-28 21:40:00,71.8,64.6,29.97,SSE,155,5.0,5.0,78,0.00,,,0.00,Wunderground v.1.15,2013-10-29 02:40:00,
2013-10-28 21:45:00,71.7,64.5,29.97,South,190,5.0,11.0,78,0.00,,,0.00,Wunderground v.1.15,2013-10-29 02:45:00,
2013-10-28 21:50:00,71.6,64.0,29.97,SSE,156,6.0,13.0,77,0.00,,,0.00,Wunderground v.1.15,2013-10-29 02:50:00,
2013-10-28 22:00:00,71.3,63.7,29.97,SSE,168,5.0,13.0,77,0.00,,,0.00,Wunderground v.1.15,2013-10-29 03:00:00,
2013-10-28 22:10:00,71.0,63.8,29.97,South,182,4.0,13.0,78,0.00,,,0.00,Wunderground v.1.15,2013-10-29 03:10:00,
2013-10-28 22:15:00,70.9,63.7,29.97,SSE,160,4.0,13.0,78,0.00,,,0.00,Wunderground v.1.15,2013-10-29 03:15:00,
2013-10-28 22:20:00,70.8,64.0,29.97,SE,132,5.0,13.0,79,0.00,,,0.00,Wunderground v.1.15,2013-10-29 03:20:00,
2013-10-28 22:30:00,70.7,64.2,29.98,SSE,162,6.0,13.0,80,0.00,,,0.00,Wunderground v.1.15,2013-10-29 03:30:00,
2013-10-28 22:35:00,70.6,64.5,29.98,SW,219,6.0,13.0,81,0.00,,,0.00,Wunderground v.1.15,2013-10-29 03:35:00,
2013-10-28 22:45:00,70.3,64.5,29.98,SE,137,5.0,7.0,82,0.00,,,0.00,Wunderground v.1.15,2013-10-29 03:45:00,
2013-10-28 22:50:00,70.2,64.8,29.98,South,189,5.0,5.0,83,0.00,,,0.00,Wunderground v.1.15,2013-10-29 03:50:00,
2013-10-28 22:55:00,70.0,64.6,29.98,SSE,152,4.0,7.0,83,0.00,,,0.00,Wunderground v.1.15,2013-10-29 03:55:00,
2013-10-28 23:05:00,69.8,64.4,29.99,South,173,4.0,5.0,83,0.00,,,0.00,Wunderground v.1.15,2013-10-29 04:05:00,
2013-10-28 23:10:00,69.7,64.3,29.99,SE,145,4.0,4.0,83,0.00,,,0.00,Wunderground v.1.15,2013-10-29 04:10:00,
2013-10-28 23:15:00,69.6,64.2,29.99,SSE,156,5.0,5.0,83,0.00,,,0.00,Wunderground v.1.15,2013-10-29 04:15:00,
2013-10-28 23:20:00,69.5,64.5,29.98,SSE,148,5.0,13.0,84,0.00,,,0.00,Wunderground v.1.15,2013-10-29 04:20:00,
2013-10-28 23:25:00,69.5,64.5,29.99,SW,228,5.0,13.0,84,0.00,,,0.00,Wunderground v.1.15,2013-10-29 04:25:00,
2013-10-28 23:30:00,69.4,64.4,29.99,SSE,162,5.0,13.0,84,0.00,,,0.00,Wunderground v.1.15,2013-10-29 04:30:00,
2013-10-28 23:35:00,69.4,64.7,29.99,South,171,5.0,13.0,85,0.00,,,0.00,Wunderground v.1.15,2013-10-29 04:35:00,
2013-10-28 23:40:00,69.3,64.6,29.99,SE,144,5.0,13.0,85,0.00,,,0.00,Wunderground v.1.15,2013-10-29 04:40:00,
2013-10-28 23:45:00,69.3,64.6,29.99,SSE,153,5.0,13.0,85,0.00,,,0.00,Wunderground v.1.15,2013-10-29 04:45:00,
2013-10-28 23:55:00,69.3,64.6,29.99,South,175,4.0,13.0,85,0.00,,,0.00,Wunderground v.1.15,2013-10-29 04:55:00,